[[{"header":{"parameterUnit":"m.s-1","parameterCategory":1,"la1":30.2991,"la2":30.254,"lo1":-89.0895,"lo2":-89.0444,"dy":0.0017,"dx":0.0017,"nx":28,"ny":28,"refTime":"2024-08-16T21:00:00:Z","depth":0,"parameterNumber":2,"parameterNumberName":"U-component_of_WINDS"},"data":[0,0,0,0,0,0,0,0,0,0,0,0,0,0,0,0,0,0,0,0,0,0,0,0,0,0,0,0,0,0,0,0,0,0,0,0,0,0,0,0,0,0,0,0,0,0,0,0,0,0,0,0,0,0,0,0,0,0,3.211,3.2111,0,3.2203,3.2204,3.2205,3.217,3.2168,3.2166,3.2164,3.226,3.2264,3.2269,0,0,0,0,0,0,0,0,0,0,0,0,0,3.1899,3.1903,3.211,3.2111,3.2112,3.2203,3.2204,3.2206,3.217,3.2168,3.2165,3.2163,3.2258,3.2264,3.2269,0,0,0,0,0,0,0,0,0,0,0,0,0,3.1991,3.1904,3.2109,3.2105,3.2106,3.2203,3.2204,3.2206,3.2171,3.2168,3.2164,3.2161,3.2257,3.2263,3.227,3.2377,0,0,3.2291,3.2294,0,0,0,0,0,0,0,0,3.1986,3.1999,3.2105,3.2106,3.2107,3.2172,3.2165,3.2263,3.2172,3.2146,3.2164,3.216,3.2233,3.2242,3.2266,3.2381,3.2385,3.2292,3.2296,3.2299,3.2301,0,0,0,0,0,0,0,3.198,3.1995,3.2147,3.2106,3.2108,3.2098,3.2108,3.2184,3.2207,3.2148,3.2146,3.2157,3.2233,3.226,3.2268,3.2387,3.2291,3.2297,3.2302,3.2304,3.2589,3.2592,0,0,0,0,0,0,3.1973,3.199,3.2144,3.2149,3.2037,3.2105,3.2115,3.2154,3.2206,3.2211,3.216,3.2155,3.225,3.226,3.2272,3.2396,3.2299,3.2305,3.2309,3.2586,3.259,3.2593,0,0,0,0,0,0,3.1969,3.1987,3.214,3.2069,3.2088,3.2112,3.2155,3.2158,3.2184,3.2215,3.2218,3.2183,3.2248,3.2262,3.235,3.2399,3.2308,3.2314,3.2581,3.2587,3.2592,3.2649,0,0,0,0,0,0,3.1963,3.1986,3.2027,3.207,3.2092,3.2217,3.2159,3.2162,3.2196,3.2191,3.2237,3.2242,3.2246,3.234,3.2357,3.2407,3.232,3.2577,3.2584,3.259,3.2642,3.2655,3.2666,0,0,0,0,0,3.1955,3.2041,3.2029,3.2048,3.2144,3.222,3.2232,3.2235,3.22,3.2241,3.226,3.2241,3.2392,3.2349,3.2368,3.2421,3.2574,3.2582,3.2589,3.2637,3.2653,3.2666,0,0,0,0,0,0,3.2004,3.2046,3.2034,3.2136,3.2175,3.2214,3.2266,3.2252,3.2302,3.2295,3.2297,3.2307,3.2397,3.2418,3.237,3.2525,3.2477,3.2489,3.2507,3.2522,3.2534,3.2526,3.2325,0,0,0,0,0,3.2026,3.2085,3.2119,3.2205,3.2225,3.2242,3.2276,3.2274,3.2315,3.2331,3.2356,3.2396,3.2451,3.2489,3.2542,3.2646,3.2654,3.2692,3.2703,3.2713,3.2722,3.2775,3.2791,3.2619,3.2619,3.2619,0,0,3.2073,3.2104,3.2141,3.2216,3.2245,3.2305,3.2256,3.2323,3.2366,3.2341,3.2424,3.2444,3.2488,3.2583,3.2627,3.2604,3.2772,3.2723,3.273,3.2735,3.2784,3.2801,3.2815,3.2624,3.2623,3.2622,0,0,3.2189,3.2219,3.2293,3.2323,3.2368,3.2378,3.2396,3.2437,3.2448,3.2532,3.2513,3.2565,3.2663,3.2693,3.2722,3.2846,3.2828,3.2863,3.2924,3.2975,3.2989,3.3001,3.3041,3.3056,3.2873,3.2873,3.2873,0,3.2242,3.2331,3.2332,3.2399,3.243,3.241,3.2483,3.2512,3.2573,3.2595,3.2568,3.2687,3.2716,3.2816,3.2845,3.2871,3.2889,3.2857,3.2987,3.2999,3.301,3.3049,3.3064,3.2877,3.2877,3.2876,3.2876,0,3.2392,3.2454,3.2507,3.2564,3.2603,3.2673,3.2683,3.2722,3.2717,3.2729,3.2813,3.2846,3.2904,3.2928,3.2925,3.3027,3.301,3.2986,3.2938,3.303,3.3066,3.3081,3.2882,3.2881,3.288,3.2879,0,0,3.2541,3.2596,3.2615,3.2639,3.2686,3.2733,3.2801,3.2856,3.2888,3.293,3.2985,3.3066,3.3042,3.3075,3.3074,3.312,3.3211,3.3089,3.309,3.3107,3.3321,3.3337,3.3355,3.32,3.3203,3.3206,3.3316,0,3.2657,3.2775,3.2777,3.2885,3.294,3.2919,3.2978,3.3012,3.3025,3.3073,3.3088,3.3144,3.3111,3.3129,3.3173,3.319,3.3253,3.3183,3.3249,3.3251,3.3236,3.3374,3.3392,3.3495,3.3331,3.3333,3.3335,0,3.2809,3.2854,3.2966,3.3001,3.3025,3.3077,3.3126,3.3174,3.3211,3.3217,3.3252,3.3244,3.3311,3.3262,3.3353,3.3304,3.3332,3.3344,3.3348,3.3352,3.3297,3.3379,3.3528,3.3542,3.3358,3.3356,3.3355,0,3.2902,3.2991,3.3068,3.309,3.3134,3.3171,3.3191,3.3225,3.3257,3.3301,3.3321,3.3372,3.3399,3.3438,3.3443,3.3408,3.3533,3.3486,3.3538,3.3538,3.3564,3.3561,3.3716,3.3586,3.3586,3.3586,3.3586,0,3.303,3.3099,3.311,3.3158,3.3233,3.3234,3.3309,3.3326,3.3356,3.3405,3.3392,3.3439,3.3444,3.3492,3.3497,3.3569,3.3582,3.3587,3.3587,3.3587,3.3586,3.3603,3.3595,3.359,3.3589,3.3588,3.3588,0,3.3146,3.3156,3.3239,3.3273,3.3283,3.3337,3.3366,3.341,3.3422,3.3484,3.3499,3.3516,3.3571,3.3581,3.3646,3.3649,3.3734,3.3729,3.3721,3.3719,3.377,3.3763,3.3939,3.396,3.3819,3.382,3.3822,0,3.3226,3.3278,3.3316,3.3348,3.3369,3.3421,3.3453,3.3456,3.3489,3.3534,3.3573,3.3626,3.3669,3.3757,3.3775,3.3824,3.3818,3.3876,3.3825,3.3822,3.3814,3.381,3.3813,3.3885,3.3886,3.3888,3.3889,0,3.3365,3.3366,3.3413,3.346,3.3498,3.3536,3.3572,3.3599,3.3606,3.3644,3.3699,3.3732,3.3797,3.385,3.3898,3.3917,3.3903,3.3904,3.3918,3.3917,3.3909,3.3911,3.3744,3.39,3.3899,3.3898,3.3897,3.3897,3.3463,3.3506,3.3539,3.359,3.3617,3.365,3.3692,3.3708,3.3754,3.3806,3.3805,3.3865,3.3898,3.3961,3.3984,3.403,3.4011,3.4033,3.4037,3.4042,3.4045,3.3904,3.4039,3.4039,3.4039,3.4039,3.4038,0,3.3598,3.3617,3.3665,3.3713,3.3753,3.3736,3.3774,3.3808,3.3861,3.3893,3.3934,3.3996,3.4046,3.4067,3.4116,3.4148,3.4142,3.416,3.4156,3.416,3.4061,3.4042,3.4164,3.4164,3.4164,3.4164,3.4164,3.4164,3.3673,3.3744,3.375,3.3833,3.3853,3.391,3.3933,3.3962,3.3987,3.4056,3.4097,3.4111,3.4137,3.4187,3.4231,3.4236,3.4253,3.4273,3.4275,3.4181,3.4168,3.4156,3.4138,3.4278,3.4278,3.437,3.4371,3.4372]},{"header":{"parameterUnit":"m.s-1","parameterCategory":1,"la1":30.2991,"la2":30.254,"lo1":-89.0895,"lo2":-89.0444,"dy":0.0017,"dx":0.0017,"nx":28,"ny":28,"refTime":"2024-08-16T21:00:00:Z","depth":0,"parameterNumber":3,"parameterNumberName":"V-component_of_WINDS"},"data":[0,0,0,0,0,0,0,0,0,0,0,0,0,0,0,0,0,0,0,0,0,0,0,0,0,0,0,0,0,0,0,0,0,0,0,0,0,0,0,0,0,0,0,0,0,0,0,0,0,0,0,0,0,0,0,0,0,0,2.8265,2.8265,0,2.8327,2.8327,2.8328,2.8299,2.8297,2.8296,2.8294,2.8354,2.8357,2.836,0,0,0,0,0,0,0,0,0,0,0,0,0,2.8116,2.8119,2.8264,2.8265,2.8266,2.8326,2.8327,2.8328,2.8299,2.8297,2.8295,2.8294,2.8353,2.8357,2.8361,0,0,0,0,0,0,0,0,0,0,0,0,0,2.818,2.812,2.8264,2.8259,2.8259,2.8326,2.8327,2.8328,2.83,2.8297,2.8295,2.8293,2.8352,2.8357,2.8361,2.8436,0,0,2.8375,2.8377,0,0,0,0,0,0,0,0,2.8176,2.8185,2.8259,2.8259,2.826,2.8303,2.8297,2.8364,2.83,2.8284,2.8294,2.8292,2.8339,2.8344,2.8361,2.8439,2.8441,2.8375,2.8378,2.838,2.8381,0,0,0,0,0,0,0,2.8172,2.8182,2.8289,2.826,2.8261,2.8252,2.8258,2.831,2.8324,2.8285,2.8283,2.8291,2.8338,2.8357,2.8362,2.8442,2.8375,2.8379,2.8382,2.8384,2.8582,2.8585,0,0,0,0,0,0,2.8168,2.8179,2.8287,2.8291,2.8211,2.8256,2.8264,2.8291,2.8323,2.8326,2.8293,2.829,2.835,2.8357,2.8364,2.8453,2.838,2.8384,2.8387,2.858,2.8583,2.8586,0,0,0,0,0,0,2.8165,2.8178,2.8284,2.8234,2.8247,2.8262,2.8293,2.8294,2.8312,2.8329,2.8331,2.831,2.8348,2.8358,2.8418,2.8454,2.8386,2.8391,2.8577,2.8581,2.8584,2.8631,0,0,0,0,0,0,2.8161,2.8177,2.8207,2.8235,2.825,2.8339,2.8295,2.8297,2.832,2.8316,2.8345,2.8347,2.8347,2.8411,2.8423,2.8459,2.8394,2.8574,2.8579,2.8583,2.8626,2.8636,2.8644,0,0,0,0,0,2.8156,2.8217,2.8209,2.8222,2.8288,2.8341,2.8349,2.8349,2.8323,2.8352,2.8363,2.8346,2.8449,2.8418,2.843,2.8469,2.8571,2.8577,2.8583,2.8622,2.8634,2.8644,0,0,0,0,0,0,2.8192,2.8221,2.8212,2.8285,2.8311,2.8336,2.8373,2.8362,2.8395,2.839,2.8387,2.8394,2.8456,2.8468,2.8434,2.8542,2.8506,2.8514,2.8532,2.8543,2.8552,2.8547,2.8398,0,0,0,0,0,2.8209,2.8251,2.8273,2.8335,2.8349,2.8359,2.8382,2.838,2.8406,2.8417,2.8432,2.8457,2.8495,2.852,2.8555,2.8628,2.8633,2.8661,2.867,2.8677,2.8684,2.8721,2.8733,2.8604,2.8604,2.8604,0,0,2.8243,2.8264,2.8291,2.8343,2.8363,2.8405,2.8369,2.8415,2.8446,2.8423,2.8481,2.8493,2.8521,2.8588,2.8618,2.86,2.8721,2.8684,2.869,2.8693,2.8728,2.8741,2.8751,2.8608,2.8608,2.8607,0,0,2.8327,2.8349,2.8402,2.8422,2.8453,2.8459,2.8472,2.8499,2.8507,2.8565,2.8549,2.8584,2.865,2.867,2.8688,2.8779,2.8764,2.879,2.8837,2.8873,2.8883,2.8892,2.8923,2.8934,2.8797,2.8798,2.8798,0,2.8366,2.843,2.843,2.8478,2.85,2.8483,2.8536,2.8555,2.8596,2.8611,2.8591,2.8672,2.8689,2.8759,2.8781,2.8798,2.8811,2.8787,2.8882,2.8891,2.89,2.8929,2.894,2.88,2.88,2.88,2.88,0,2.8475,2.852,2.8559,2.86,2.8627,2.8677,2.8682,2.8709,2.8704,2.8712,2.877,2.879,2.8829,2.8846,2.8841,2.8915,2.8902,2.8883,2.8846,2.8915,2.8942,2.8953,2.8805,2.8804,2.8803,2.8802,0,0,2.8584,2.8624,2.8638,2.8655,2.8688,2.8721,2.8769,2.8808,2.8831,2.8859,2.8898,2.8953,2.8935,2.8956,2.8953,2.8985,2.9053,2.8961,2.8961,2.8976,2.9134,2.9148,2.9161,2.9044,2.9046,2.9048,2.9131,0,2.867,2.8756,2.8756,2.8835,2.8875,2.8858,2.89,2.8923,2.8931,2.8965,2.8973,2.9012,2.8985,2.8998,2.9029,2.9039,2.9085,2.9033,2.9079,2.908,2.9071,2.9176,2.9191,2.9268,2.9142,2.9144,2.9145,0,2.8781,2.8814,2.8896,2.8922,2.8938,2.8976,2.9011,2.9044,2.9069,2.9073,2.9096,2.9088,2.9135,2.9098,2.9161,2.9126,2.9144,2.9152,2.9155,2.9158,2.9116,2.918,2.9293,2.9304,2.9162,2.9161,2.9159,0,2.8851,2.8915,2.8972,2.8988,2.9019,2.9046,2.906,2.9083,2.9106,2.9135,2.915,2.9185,2.9203,2.9229,2.923,2.9203,2.9294,2.9257,2.9296,2.9296,2.9316,2.9314,2.9432,2.933,2.933,2.9329,2.9329,0,2.8945,2.8996,2.9004,2.9039,2.9095,2.9094,2.9149,2.916,2.9181,2.9216,2.9204,2.9237,2.9237,2.927,2.9271,2.9323,2.9331,2.9334,2.9333,2.9335,2.9334,2.9346,2.934,2.9332,2.9332,2.9331,2.9331,0,2.9032,2.9039,2.91,2.9125,2.9132,2.9172,2.9192,2.9225,2.9231,2.9277,2.9287,2.9297,2.9336,2.9339,2.9384,2.9384,2.9446,2.9441,2.9438,2.9437,2.9476,2.9471,2.9604,2.9621,2.9509,2.951,2.9511,0,2.9091,2.913,2.9159,2.9182,2.9198,2.9236,2.9259,2.926,2.9284,2.9315,2.9344,2.9381,2.9411,2.9474,2.9484,2.9517,2.9511,2.9556,2.9516,2.9516,2.951,2.9508,2.9511,2.9563,2.9564,2.9565,2.9566,0,2.9195,2.9197,2.9232,2.9268,2.9296,2.9324,2.935,2.9369,2.9372,2.94,2.944,2.9464,2.9509,2.9546,2.9579,2.9591,2.9579,2.9578,2.9589,2.959,2.9587,2.9588,2.9458,2.9575,2.9574,2.9573,2.9573,2.9573,2.9269,2.9302,2.9327,2.9366,2.9386,2.941,2.9442,2.9452,2.9486,2.9524,2.9522,2.9565,2.9588,2.9631,2.9646,2.9679,2.9664,2.9679,2.9683,2.9687,2.969,2.9582,2.9685,2.9684,2.9684,2.9684,2.9684,0,2.9371,2.9387,2.9422,2.9459,2.9489,2.9476,2.9504,2.9529,2.9568,2.9591,2.9621,2.9666,2.9701,2.9714,2.9748,2.9772,2.9767,2.9781,2.9778,2.9781,2.9702,2.9689,2.9784,2.9784,2.9784,2.9784,2.9784,2.9784,2.9428,2.9483,2.9487,2.9551,2.9565,2.9609,2.9626,2.9647,2.9665,2.9717,2.9746,2.9755,2.9773,2.9808,2.984,2.9842,2.9855,2.9871,2.9871,2.9797,2.9787,2.9777,2.9765,2.9874,2.9874,2.9947,2.9947,2.9948]}]]